Wind_Speed
15 13 12 13 12 11 13 14 14 14 14 13 13 12 11 11 11 11 11 11 11 11 11 11 11 12 11 11 11 11 9 9 9 9 9 9 9 9 9 9 9 8
15 14 12 13 13 12 13 13 13 14 14 13 13 12 12 12 12 11 11 11 11 10 11 11 11 12 12 11 12 11 11 10 10 10 9 9 10 10 10 10 10 10
16 14 12 12 12 12 13 13 13 14 14 14 13 12 12 12 12 11 11 10 9 9 10 10 10 11 11 11 11 11 11 11 11 11 10 10 11 11 11 11 10 11
16 14 13 11 11 12 13 14 14 14 14 14 14 13 13 12 12 11 10 9 9 8 8 8 8 9 9 9 10 10 10 10 10 11 10 10 11 10 11 11 10 10
15 14 14 12 12 12 13 13 14 14 14 14 14 13 13 12 12 11 10 9 8 8 7 7 7 7 7 8 8 8 8 8 8 9 9 9 9 9 10 10 9 10
15 14 14 14 12 13 14 14 14 15 15 14 14 13 13 12 11 11 10 9 8 7 6 6 6 6 6 6 6 6 6 4 5 7 7 6 7 7 8 8 7 8
16 14 15 15 14 13 14 16 16 15 15 14 14 13 13 12 12 11 10 9 8 7 6 5 5 5 5 5 5 4 3 2 2 4 4 3 4 4 5 5 5 5
17 15 16 17 15 14 16 17 17 17 15 15 14 14 14 13 12 12 11 9 8 7 6 6 5 5 4 5 5 3 3 2 2 2 2 1 2 2 2 2 3 3
19 17 18 18 16 15 16 18 18 18 16 15 15 15 15 14 13 13 12 10 9 9 8 6 5 5 4 4 4 2 1 0 0 1 1 1 1 1 1 1 1 1
19 19 19 19 17 15 17 18 18 18 17 16 16 16 16 15 14 13 13 12 11 9 9 8 6 5 5 4 3 2 2 3 3 3 3 3 3 3 3 3 2 2
19 20 20 20 19 16 17 18 18 17 17 17 17 17 16 15 15 15 14 13 12 11 10 9 8 8 8 8 7 6 6 6 6 6 7 7 7 7 6 6 6 5
18 19 18 19 19 17 17 19 18 17 17 18 18 18 17 17 16 16 15 14 13 13 13 13 12 12 12 11 10 11 11 10 9 9 9 10 10 9 7 8 8 7
15 17 16 15 17 18 18 19 19 17 17 17 18 18 17 16 16 16 15 14 14 14 15 16 15 15 14 13 13 13 13 12 11 10 10 10 11 11 9 9 9 9
11 13 15 16 16 17 18 18 18 18 17 18 18 17 15 15 15 16 16 16 15 16 16 16 16 16 16 16 14 13 13 13 12 10 10 10 10 11 12 13 12 12
8 9 12 14 15 14 16 17 17 17 17 18 19 18 15 14 15 15 16 16 16 16 16 16 15 16 16 15 14 13 13 11 9 8 8 9 8 9 13 13 12 13
6 6 7 9 10 10 13 15 16 16 17 18 20 19 17 15 14 15 15 15 15 15 15 15 15 15 15 14 12 11 8 6 5 4 4 4 4 5 8 8 6 7
6 6 7 7 7 7 9 12 13 14 14 16 17 17 17 16 16 16 15 14 13 12 13 13 13 12 10 8 7 6 4 3 3 3 3 2 2 3 4 4 4 4
5 5 6 7 7 7 8 8 9 10 11 12 13 14 15 14 14 12 10 8 8 8 8 9 8 7 6 5 4 4 3 3 3 3 3 2 2 2 2 3 4 4
3 3 4 5 6 7 7 7 8 10 11 12 12 12 11 10 9 8 6 6 6 6 7 7 7 7 6 5 4 4 5 5 4 4 3 3 3 2 2 3 3 4
5 4 4 4 5 5 5 6 7 9 9 9 9 9 8 8 7 7 7 7 7 7 8 8 7 6 6 5 5 6 6 5 5 4 4 4 4 4 3 4 4 4
7 7 6 5 5 5 5 6 7 7 8 9 9 8 8 8 9 9 8 8 8 8 7 7 6 5 5 5 5 5 4 3 3 4 4 5 5 6 6 6 6 6
7 8 8 7 7 7 7 7 7 8 8 9 10 9 10 10 10 9 8 8 8 7 5 5 5 4 3 3 3 3 3 3 4 4 4 5 6 6 7 7 7 8
6 7 8 8 8 8 8 7 6 6 7 8 8 9 9 9 9 8 8 7 7 6 5 4 3 3 3 3 4 5 4 3 2 3 4 6 6 6 7 7 8 8
5 5 6 7 8 9 9 7 6 7 7 7 8 8 9 9 9 8 7 6 5 4 4 4 4 4 4 5 6 6 6 3 1 2 4 6 6 7 7 7 7 8
5 6 6 7 8 9 10 10 10 11 10 8 8 9 9 9 8 7 7 6 6 5 4 4 4 5 6 6 6 7 6 2 0 1 2 3 4 5 7 8 8 8
9 9 9 9 10 11 12 12 14 14 12 10 10 10 9 9 8 8 8 7 7 7 6 6 6 5 5 5 5 6 5 4 1 1 2 1 1 2 5 7 9 9
Wind_Direction
153 153 149 146 147 147 148 149 144 137 132 132 132 130 128 124 117 109 102 100 98 96 96 92 91 91 91 95 97 95 95 98 100 100 100 100 97 95 95 94 93 84
160 159 157 155 156 152 151 153 147 140 137 137 137 134 132 125 117 111 103 100 98 96 95 91 90 91 89 91 93 91 90 91 93 94 96 99 99 98 97 95 96 91
168 167 165 161 161 158 157 158 153 148 146 144 143 142 136 128 121 117 110 104 99 94 93 89 88 89 89 90 88 87 87 86 87 89 90 93 94 95 96 93 93 92
176 175 174 169 168 168 167 166 161 157 153 149 151 151 145 138 132 127 122 117 109 101 95 90 87 85 85 87 85 85 86 84 85 85 83 85 88 90 94 94 94 94
186 184 184 180 175 175 176 175 170 165 160 157 159 162 157 151 145 139 136 130 122 116 107 98 91 85 80 79 79 80 81 82 84 84 78 78 82 84 87 90 93 96
197 197 197 191 184 183 182 180 177 175 172 169 170 171 168 163 156 151 149 143 135 129 121 113 104 95 87 81 77 76 81 81 77 82 79 73 76 78 79 82 82 85
207 208 206 199 192 192 190 184 183 183 181 180 180 180 177 171 167 162 158 156 153 147 141 137 127 116 107 99 94 91 93 87 60 81 89 77 75 75 71 75 78 75
212 213 209 204 198 197 197 190 187 188 188 187 187 187 184 178 176 175 172 169 171 172 168 161 150 141 130 119 119 116 103 89 69 94 121 122 95 80 52 47 75 87
213 213 207 205 201 201 202 196 192 192 192 192 191 190 188 185 184 184 184 186 190 192 187 181 178 173 164 148 140 136 111 88 102 134 163 175 142 128 173 292 36 99
211 212 209 205 203 203 204 199 194 194 195 195 194 193 192 192 192 194 198 202 205 208 206 204 209 215 212 208 212 230 261 281 281 273 264 252 247 237 224 239 241 207
209 212 213 211 206 204 205 202 196 194 197 198 197 199 201 201 203 205 208 214 219 224 223 217 220 232 239 244 250 251 259 275 280 279 279 271 261 256 250 247 246 231
207 210 213 215 213 209 205 204 201 197 199 201 201 206 210 212 213 214 217 222 229 236 238 234 236 245 252 255 258 260 265 273 277 280 284 276 261 256 258 259 260 255
204 210 212 215 219 216 207 204 206 204 203 205 207 211 215 218 220 223 227 231 235 242 245 246 249 253 258 261 262 264 269 276 279 279 281 275 263 256 257 259 260 259
208 218 221 218 218 219 212 206 208 210 209 209 211 214 219 227 230 232 236 241 244 247 249 251 253 255 258 261 261 263 270 278 282 278 275 274 268 261 260 263 265 264
202 216 221 217 213 214 214 209 209 212 210 209 212 215 221 231 236 238 241 246 248 249 251 253 255 256 258 260 260 263 270 274 274 274 272 271 268 266 271 274 275 271
184 187 192 201 205 208 211 211 212 213 210 210 213 219 226 235 244 246 246 247 247 248 250 251 253 256 258 259 258 257 258 255 253 261 269 267 251 254 273 287 293 283
174 177 172 176 186 194 201 208 214 217 218 217 220 228 235 240 246 248 247 245 243 242 246 246 247 249 247 242 237 228 221 222 236 250 258 269 259 246 272 303 318 309
183 194 185 179 182 191 197 201 210 218 221 222 224 231 235 234 234 234 234 231 223 219 222 223 221 216 206 203 207 213 226 238 254 266 268 270 269 263 280 300 304 305
167 176 183 191 200 208 210 211 220 227 227 224 222 220 215 207 204 200 193 185 176 173 178 184 187 189 195 208 220 236 257 269 273 276 273 264 257 251 251 268 282 292
124 131 146 169 189 201 203 202 210 218 218 213 209 204 193 182 180 178 172 167 164 166 175 186 195 201 212 230 245 258 269 274 277 276 275 277 275 270 264 262 270 278
118 126 131 137 152 164 166 172 179 182 183 181 180 177 168 165 171 175 177 177 173 175 186 197 204 213 228 240 251 264 271 276 287 291 289 290 289 285 281 278 277 278
127 133 135 136 143 146 148 158 165 165 167 166 164 164 163 163 169 175 180 182 173 166 180 203 210 215 232 248 262 284 304 318 318 313 303 297 295 289 283 279 276 276
144 150 150 152 154 154 157 166 173 177 180 177 174 177 179 180 183 181 178 179 175 164 168 204 234 243 261 289 303 308 320 338 339 314 303 301 299 291 285 281 275 271
152 159 163 168 169 170 176 187 201 204 203 194 186 185 186 186 186 187 186 191 200 196 191 220 260 283 297 309 315 316 327 352 2 305 307 310 308 300 294 289 279 272
214 215 214 214 211 211 215 223 224 217 212 206 196 191 191 190 188 194 203 214 228 236 236 243 266 290 301 310 315 319 333 5 51 273 304 317 310 301 299 296 287 279
236 237 238 237 235 236 238 235 228 223 221 218 210 203 200 198 196 200 210 224 240 249 254 257 265 280 293 305 316 322 335 355 349 258 288 310 281 272 288 294 294 290
Height
1539 1541 1542 1543 1544 1545 1546 1546 1547 1547 1548 1549 1550 1551 1552 1553 1554 1554 1554 1554 1555 1555 1555 1555 1555 1555 1556 1556 1556 1556 1557 1556 1556 1556 1556 1556 1556 1556 1555 1555 1555 1556
1539 1540 1542 1543 1544 1545 1545 1546 1546 1546 1548 1549 1551 1552 1553 1553 1554 1554 1554 1555 1555 1556 1556 1556 1556 1556 1556 1557 1557 1557 1557 1557 1557 1557 1557 1557 1557 1556 1556 1556 1556 1556
1538 1540 1541 1543 1544 1545 1545 1546 1546 1547 1548 1549 1550 1552 1553 1553 1554 1554 1555 1555 1555 1556 1556 1556 1557 1557 1557 1557 1558 1558 1558 1559 1559 1558 1558 1558 1558 1557 1557 1557 1557 1557
1538 1539 1541 1542 1543 1544 1545 1545 1546 1547 1548 1549 1550 1551 1552 1553 1554 1554 1555 1555 1556 1556 1556 1557 1557 1557 1558 1558 1558 1559 1559 1559 1560 1560 1559 1559 1559 1558 1558 1558 1558 1558
1537 1539 1540 1541 1542 1543 1544 1545 1546 1547 1548 1549 1550 1551 1552 1553 1554 1554 1555 1555 1556 1556 1556 1557 1557 1557 1558 1558 1559 1559 1560 1560 1560 1560 1560 1560 1560 1559 1559 1559 1559 1559
1537 1538 1539 1540 1541 1543 1544 1545 1546 1546 1547 1548 1549 1551 1551 1552 1553 1554 1555 1555 1556 1556 1556 1557 1557 1557 1558 1558 1559 1559 1560 1561 1560 1561 1561 1561 1560 1560 1560 1560 1560 1560
1536 1537 1538 1540 1540 1542 1543 1544 1545 1546 1547 1548 1549 1550 1551 1552 1553 1554 1555 1555 1555 1556 1556 1556 1557 1557 1558 1558 1559 1559 1560 1560 1560 1561 1561 1561 1561 1560 1560 1560 1561 1561
1535 1536 1538 1539 1540 1541 1542 1543 1544 1545 1546 1547 1548 1549 1550 1551 1552 1553 1554 1555 1555 1555 1556 1556 1556 1557 1557 1557 1558 1559 1559 1560 1560 1560 1561 1561 1561 1561 1561 1561 1561 1562
1533 1535 1537 1538 1539 1540 1541 1542 1543 1544 1545 1546 1547 1548 1549 1550 1551 1552 1553 1554 1554 1554 1555 1555 1556 1556 1556 1557 1557 1558 1559 1559 1559 1560 1560 1560 1561 1561 1562 1562 1561 1562
1532 1534 1535 1537 1538 1539 1540 1542 1543 1543 1544 1545 1546 1547 1548 1549 1550 1551 1552 1553 1553 1553 1553 1554 1555 1555 1555 1556 1556 1557 1558 1559 1559 1559 1560 1560 1560 1561 1561 1562 1562 1562
1530 1532 1534 1535 1536 1538 1539 1540 1541 1542 1543 1544 1545 1546 1547 1548 1549 1550 1551 1552 1552 1552 1552 1553 1553 1553 1554 1554 1555 1556 1556 1557 1558 1558 1559 1560 1560 1560 1560 1561 1561 1561
1529 1531 1532 1534 1535 1536 1538 1539 1540 1541 1542 1543 1544 1545 1546 1547 1548 1548 1549 1550 1551 1551 1551 1552 1552 1552 1552 1553 1553 1554 1554 1555 1556 1557 1558 1558 1559 1559 1560 1560 1560 1561
1527 1529 1531 1533 1534 1535 1536 1537 1538 1540 1541 1542 1543 1544 1545 1546 1546 1547 1548 1549 1550 1550 1550 1550 1550 1550 1551 1551 1552 1552 1553 1553 1554 1555 1556 1556 1557 1558 1558 1558 1559 1559
1526 1527 1529 1531 1532 1533 1534 1536 1537 1538 1540 1541 1542 1543 1544 1545 1545 1546 1546 1547 1548 1548 1548 1548 1548 1549 1549 1549 1550 1551 1551 1551 1552 1553 1553 1554 1555 1556 1556 1556 1557 1557
1525 1526 1528 1529 1529 1531 1533 1535 1536 1537 1538 1540 1541 1542 1543 1544 1544 1544 1544 1545 1546 1546 1547 1547 1547 1547 1547 1548 1549 1549 1549 1550 1550 1551 1552 1552 1554 1554 1554 1554 1555 1555
1525 1526 1527 1528 1529 1531 1533 1534 1535 1536 1536 1537 1538 1539 1540 1542 1544 1544 1543 1543 1544 1544 1544 1545 1545 1545 1545 1546 1547 1547 1548 1548 1549 1550 1550 1551 1552 1553 1553 1553 1553 1553
1526 1526 1527 1528 1529 1531 1533 1533 1534 1535 1535 1535 1537 1538 1539 1541 1543 1542 1541 1541 1542 1542 1543 1543 1543 1544 1544 1545 1545 1546 1547 1547 1548 1549 1549 1550 1551 1551 1552 1552 1552 1552
1526 1526 1527 1528 1529 1530 1531 1532 1533 1534 1534 1535 1536 1537 1538 1539 1540 1540 1540 1540 1540 1541 1541 1542 1542 1543 1544 1544 1545 1545 1546 1547 1547 1548 1548 1549 1550 1550 1551 1551 1551 1551
1526 1526 1527 1528 1528 1529 1530 1531 1533 1534 1534 1534 1535 1536 1537 1539 1539 1539 1539 1540 1540 1541 1541 1542 1542 1543 1544 1544 1545 1545 1546 1546 1547 1547 1547 1548 1549 1549 1550 1550 1550 1551
1527 1527 1528 1528 1529 1529 1530 1531 1533 1533 1534 1534 1535 1536 1536 1538 1539 1539 1540 1540 1540 1541 1541 1542 1542 1543 1543 1544 1544 1544 1545 1545 1546 1546 1546 1547 1547 1548 1548 1548 1549 1549
1527 1528 1529 1529 1530 1530 1531 1532 1533 1533 1533 1534 1534 1535 1536 1537 1539 1539 1539 1540 1540 1541 1541 1541 1542 1542 1542 1543 1543 1544 1544 1544 1545 1545 1545 1545 1545 1546 1546 1546 1547 1547
1528 1528 1529 1530 1530 1531 1532 1532 1533 1533 1533 1534 1535 1535 1536 1537 1538 1539 1539 1539 1540 1541 1541 1541 1541 1542 1542 1542 1542 1543 1543 1544 1544 1544 1544 1544 1544 1544 1544 1544 1545 1545
1527 1528 1529 1529 1530 1531 1532 1532 1533 1533 1534 1534 1535 1536 1536 1537 1537 1538 1539 1539 1540 1541 1541 1540 1541 1541 1541 1541 1542 1542 1543 1543 1544 1543 1543 1543 1543 1543 1543 1543 1543 1543
1527 1528 1528 1529 1530 1530 1530 1531 1532 1532 1533 1533 1534 1535 1535 1536 1537 1537 1538 1539 1539 1540 1540 1540 1540 1540 1540 1540 1541 1541 1542 1542 1543 1543 1542 1541 1541 1541 1541 1541 1541 1541
1527 1527 1528 1528 1529 1529 1529 1530 1530 1531 1531 1532 1533 1534 1535 1535 1536 1536 1537 1537 1538 1538 1539 1539 1539 1538 1539 1539 1539 1539 1540 1541 1542 1542 1541 1541 1541 1540 1540 1539 1539 1539
1525 1526 1526 1527 1527 1527 1527 1528 1528 1528 1529 1530 1531 1533 1534 1534 1535 1536 1536 1536 1537 1537 1537 1537 1537 1537 1537 1537 1537 1538 1538 1539 1541 1541 1540 1540 1540 1539 1538 1537 1537 1537